Regional Weather Roundup
Issued by NWS

Home | Current Version | Previous Version | Text Only | Print | Product List | Glossary On
Versions: 1 2 3 4 5 6 7 8 9 10 11 12 13 14 15 16 17 18 19 20 21 22 23 24 25 26 27
000
ASUS42 KTBW 251117
RWRFL
FLORIDA REGIONAL WEATHER ROUNDUP
NATIONAL WEATHER SERVICE TAMPA BAY RUSKIN FL
700 AM EDT SUN JUN 25 2017

NOTE: "FAIR" INDICATES FEW OR NO CLOUDS BELOW 12,000 FEET WITH NO
SIGNIFICANT WEATHER AND/OR OBSTRUCTIONS TO VISIBILITY.

FLZ001>010-012>015-112-114-115-251200-
PANHANDLE FLORIDA

CITY           SKY/WX    TMP DP  RH WIND       PRES   REMARKS
PENSACOLA      CLOUDY    78  73  84 NW5       30.07R
PENSACOLA NAS  PTCLDY    77  73  87 NW6       30.06S
MILTON NAS     CLOUDY    74  73  97 NW5       30.07
CRESTVIEW      CLOUDY    74  72  93 CALM      30.08S FOG
DUKE FIELD     FAIR      76  75  97 CALM      30.06S
VALPARAISO     MOCLDY    77  75  91 NW3       30.07R
MARY ESTHER    DRIZZLE   77  72  83 NW3       30.05
PANAMA CITY    FAIR      76  74  93 CALM      30.06R
TYNDALL AFB    MOCLDY    80  76  86 W8        30.07R
APALACHICOLA   CLEAR     78  78 100 W5        30.07R

STATION/POSITION SKY/WX   TEMP    WIND        PRES    WAVE   SWELL
                          AIR SEA DIR/SP/G            HT/PER HT/PER
                          (F)     (DEG/KT/KT) (MB)    (FT/S) (FT/S)
30.1N   87.6W              81 83  330/  4/  4 1018.0R   2/ 6   2/ 6
29.2N   88.2W              82 83  250/  8/  8 1018.6R   2/ 7   2/ 7
28.8N   86.0W              81 82  260/  2/  4 1018.6R   2/ 7   2/ 7
PANAMA CITY BEAC           79 83  290/  4/  5 1018.4R
TOWER C                    80     270/  7/  8 1019.5R
28.5N   84.5W              81 83   CALM  /  2 1018.7R   2/ 7   2/ 7

$$
FLZ011-016>038-118-127-128-134-139-239-251200-
NORTH FLORIDA

CITY           SKY/WX    TMP DP  RH WIND       PRES   REMARKS
MARIANNA       CLOUDY    76  75  97 CALM      30.06R
TALLAHASSEE    MOCLDY    74  74 100 CALM      30.08R
PERRY          FOG       72  71  97 CALM      30.10R VSB 3/4
CROSS CITY     CLEAR     73  72  94 CALM      30.10R
LAKE CITY      FAIR      72  72 100 CALM      30.10S
GAINESVILLE    CLEAR     72  71  97 CALM      30.10R
WILLISTON      CLEAR     73  73 100 CALM      30.10R FOG
PALATKA        FAIR      75  75 100 CALM      30.10S
MAYPORT NAS    CLEAR     77  75  93 SW6       30.09R
JACKSONVILLE   PTCLDY    75  74  96 SW5       30.09R
JAX NAS        MOCLDY    79  74  84 S6        30.10R
FERNANDINA BEA FAIR      79  75  89 SW6       30.08R
ST AUGUSTINE   CLEAR     76  75  97 W7        30.10S

STATION/POSITION SKY/WX   TEMP    WIND        PRES    WAVE   SWELL
                          AIR SEA DIR/SP/G            HT/PER HT/PER
                          (F)     (DEG/KT/KT) (MB)    (FT/S) (FT/S)
SHELL POINT      NOT AVBL
KEATON BEACH               82     260/  8/  9 1018.5R
CEDAR KEY                  83     240/  3/  5 1019.2R
FERNANDINA                 78 84  160/  4/  5 1019.5R
30.7N   81.3W                 79                N/A     3/ 8
MAYPORT                    78 83  220/  5/  6 1019.4R
31.4N   80.9W              81 82  210/ 12/ 14 1017.5R   3/ 5   2/ 8
ST AUGUSTINE               77 76  260/  4/  4 1019.0F

$$
FLZ040-043>046-052-053-057-058-063-144-251200-
INTERIOR CENTRAL FLORIDA

CITY           SKY/WX    TMP DP  RH WIND       PRES   REMARKS
OCALA          CLEAR     74  74 100 CALM      30.11R
THE VILLAGES     N/A     79  79 100 CALM      30.01R
LEESBURG       CLOUDY    81  76  84 SW6       30.11R
SANFORD        CLOUDY    79  74  84 S7        30.10R
ORLANDO EXEC   CLOUDY    79  77  94 CALM      30.11R
ORLANDO INTL   CLOUDY    76  76 100 CALM      30.11R
KISSIMMEE      CLOUDY    80  77  90 S3        30.12R
WINTER HAVEN   CLEAR     77  73  87 CALM      30.12R
LAKELAND       CLEAR     75  75 100 SE3       30.11R
BARTOW         FAIR      73 N/A N/A CALM      30.12R
SEBRING        FAIR      76  73  90 E3        30.11S

$$
FLZ041-047-054-059-064-141-147-251200-
EAST CENTRAL FLORIDA

CITY           SKY/WX    TMP DP  RH WIND       PRES   REMARKS
ORMOND BEACH   MOCLDY    75  73  94 CALM      30.09
DAYTONA BEACH  MOCLDY    79  74  84 CALM      30.09R
DELAND         CLOUDY    77  72  83 SE8       30.09R
NEW SMYRNA BEA MOCLDY   N/A N/A N/A SE46      30.11
JFK SPACE CTR  PTCLDY    78  76  95 S6        30.10R
TITUSVILLE     PTCLDY    77  75  94 S6        30.12
CAPE CANAVERAL PTCLDY    74  71  89 CALM      30.10R
PATRICK AFB    CLEAR     77  76  95 S5        30.11R
MELBOURNE      CLEAR     78  75  90 S5        30.11R
VERO BEACH     CLEAR     72  71  97 CALM      30.12R FOG
FT PIERCE      CLEAR     73  72  96 CALM      30.11R
STUART         PTCLDY    75  75 100 CALM      30.12S

STATION/POSITION SKY/WX   TEMP    WIND        PRES    WAVE   SWELL
                          AIR SEA DIR/SP/G            HT/PER HT/PER
                          (F)     (DEG/KT/KT) (MB)    (FT/S) (FT/S)
28.5N   80.2W              80 80  200/  8/  8 1020.8R   2/ 8   2/ 8
28.9N   78.5W              82 83  180/ 10/ 12 1019.8R   3/ 8   3/ 8
TRIDENT PIER               77 81  160/  4/  6 1021.2R
28.4N   80.5W                 78                N/A     1/ 7
27.5N   80.2W                 78                N/A     2/ 8

$$
FLZ050-056-061-142-242-148-248-149-249-151-251-155-255-
160-260-251200-
WEST CENTRAL FLORIDA

CITY           SKY/WX    TMP DP  RH WIND       PRES   REMARKS
CRYSTAL RIVER  FAIR      73  73 100 CALM      30.10R
INVERNESS      FAIR      73  73 100 CALM      30.10S FOG
BROOKSVILLE    CLEAR     76  74  93 SE3       30.11R
CLEARWATER AIR MOCLDY    77  77 100 CALM      30.09S
ST PETE CLEARW MOCLDY    82  75  79 NE3       30.09R
TAMPA INTL     MOCLDY    81  75  82 CALM      30.10R
TAMPA EXEC     MOCLDY    79  75  89 CALM      30.11R
PLANT CITY     MOCLDY    77  77 100 MISG      30.13R
MACDILL AFB    CLEAR     77  77 100 CALM      30.10R
PETER O KNIGHT CLOUDY    81  79  94 E3        30.10S
ST PETERSBURG  MOCLDY    82  77  84 SE6       30.08R
SARASOTA       CLEAR     78  75  90 E5        30.09R
VENICE         MOCLDY    79  77  94 E3        30.10R

STATION/POSITION SKY/WX   TEMP    WIND        PRES    WAVE   SWELL
                          AIR SEA DIR/SP/G            HT/PER HT/PER
                          (F)     (DEG/KT/KT) (MB)    (FT/S) (FT/S)
27.3N   84.2W                 83                N/A     2/ 6
CLEARWATER BEACH           82 86   90/  2/  5 1019.2R
MIDDLE TAMPA BAY           79     140/  5/  6 1019.2R
VENICE                     79 87  120/  2/  3 1019.4R

$$
FLZ066-069-070-075>078-162-262-165-265-251200-
SOUTHWEST FLORIDA AND KEYS

CITY           SKY/WX    TMP DP  RH WIND       PRES   REMARKS
PUNTA GORDA    MOCLDY    77  77 100 CALM      30.12R
FT MYERS       CLEAR     76  76 100 CALM      30.09R
SOUTHWEST INTL CLEAR     76  74  93 E3        30.10R
NAPLES         CLEAR     77  75  93 NE5       30.09R
MARCO ISLAND   CLEAR     77  73  88 NE6       30.09S
IMMOKALEE      FAIR      73  73 100 CALM      30.11S FOG
MARATHON       CLEAR     82  75  79 SE9       30.07R
KEY WEST NAS   PTCLDY    82  75  79 SE13      30.07R
KEY WEST INTL  CLEAR     83  75  77 SE12      30.07S

STATION/POSITION SKY/WX   TEMP    WIND        PRES    WAVE   SWELL
                          AIR SEA DIR/SP/G            HT/PER HT/PER
                          (F)     (DEG/KT/KT) (MB)    (FT/S) (FT/S)
NAPLES                        87   70/  4/  5 1019.0R
DRY TORTUGAS               83     130/ 14/ 14 1018.1R
SAND KEY                   82     140/ 14/ 16 1018.6R
LONG KEY                   83     150/ 10     1018.1
MOLASSES REEF              82 83  120/ 10/ 12 1018.9R

$$
FLZ067-068-071>074-168-172>174-251200-
SOUTHEAST FLORIDA

CITY           SKY/WX    TMP DP  RH WIND       PRES   REMARKS
W PALM BEACH   MOCLDY    81  74  79 SE3       30.11R
BOCA RATON     PTCLDY    81  73  78 S12       30.10
FT LAUDER-EXEC CLEAR     75  73  93 SE3       30.09R
FT LAUDERDALE  PTCLDY    82  76  81 S6        30.09R
POMPANO BEACH  CLEAR     83  75  77 SE7       30.10R
PEMBROKE PINES PTCLDY    81  74  79 CALM      30.10S
OPA LOCKA      PTCLDY    81  75  82 SE5       30.10R
MIAMI          PTCLDY    82  73  74 SE6       30.09R
WEST KENDALL   CLEAR     80  72  76 E5        30.09R
HOMESTEAD      CLEAR     79  75  87 E5        30.08R

STATION/POSITION SKY/WX   TEMP    WIND        PRES    WAVE   SWELL
                          AIR SEA DIR/SP/G            HT/PER HT/PER
                          (F)     (DEG/KT/KT) (MB)    (FT/S) (FT/S)
PORT EVERGLADES            83     130/  5/  7 1019.0R
VIRGINIA KEY               83 86  120/  5/  7 1018.3R
LAKE WORTH                 82 82  130/  7/  9 1020.2R
FOWEY ROCKS                82 82  130/ 12/ 13 1019.5R
SETTLEMENT POINT           81     140/  5/  7 1019.7R

$$





USA.gov is the U.S. government's official web portal to all federal, state and local government web resources and services.